Sunlight Mountain, CO

9:26 PM MST on February 19, 2018 (GMT -0700)
Sunlight Mountain

Weather History for K5SM - August, 2013

Change the Weather History Date:

Monday, August 5, 2013

  Actual Average (KRIL) Record (KRIL)
Temperature  
Mean Temperature 60 °F -  
Max Temperature 69 °F 89 °F 98 °F (1938)
Min Temperature 50 °F 52 °F 38 °F (1956)
Degree Days  
Heating Degree Days 6    
Growing Degree Days 10 (Base 50)    
Moisture  
Dew Point 44 °F    
Average Humidity 64    
Maximum Humidity 82    
Minimum Humidity 52    
Precipitation  
Precipitation 0.00 in - - ()
Sea Level Pressure  
Sea Level Pressure 30.58 in    
Wind  
Wind Speed 1 mph (WNW)    
Max Wind Speed 8 mph    
Max Gust Speed -    
Visibility 10 miles    
Events Rain , Thunderstorm    
Averages and records for this station are not official NWS values.
T = Trace of Precipitation, MM = Missing Value Source: NWS Daily Summary

Daily Weather History Graph

Daily Weather History Graph

Search for Another Location

Airport or City:

Trip Planner

Search our weather history database for the weather conditions in past years. The results will help you decide how hot, cold, wet, or windy it might be!

Date:

Astronomy

Aug. 05, 2013 Rise Set
Actual Time 6:13 AM MDT 8:17 PM MDT
Civil Twilight 5:43 AM MDT 8:46 PM MDT
Nautical Twilight 5:07 AM MDT 9:22 PM MDT
Astronomical Twilight 4:28 AM MDT 10:01 PM MDT
Moon 5:10 AM MDT (8/5) 7:19 PM MDT (8/5)
Length of Visible Light 15h 03m
Length of Day
14h 03m
Waning Crescent, 1% of the Moon is Illuminated
Aug 5
Waning Crescent
Aug 6
New
Aug 14
First Quarter
Aug 20
Full
Aug 28
Last Quarter

Hourly Weather History & Observations

Time (MDT) Temp. Dew Point Humidity Pressure Visibility Wind Dir Wind Speed Gust Speed Precip Events Conditions
12:02 AM 53.6 °F 39.2 °F 58% 30.61 in 10.0 mi Calm Calm - N/A   Mostly Cloudy
12:22 AM 53.6 °F 41.0 °F 62% 30.61 in 10.0 mi Calm Calm - N/A   Clear
12:42 AM 53.6 °F 41.0 °F 62% 30.60 in 10.0 mi Calm Calm - N/A   Clear
1:01 AM 51.8 °F 41.0 °F 67% 30.60 in 10.0 mi Calm Calm - N/A   Clear
1:22 AM 51.8 °F 41.0 °F 67% 30.60 in 10.0 mi Calm Calm - N/A   Mostly Cloudy
1:42 AM 53.6 °F 41.0 °F 62% 30.60 in 10.0 mi Calm Calm - N/A   Scattered Clouds
2:02 AM 53.6 °F 41.0 °F 62% 30.59 in 10.0 mi Calm Calm - N/A   Clear
2:22 AM 53.6 °F 41.0 °F 62% 30.59 in 10.0 mi Calm Calm - N/A   Scattered Clouds
2:42 AM 51.8 °F 41.0 °F 67% 30.59 in 10.0 mi Calm Calm - N/A   Scattered Clouds
3:02 AM 51.8 °F 41.0 °F 67% 30.59 in 10.0 mi Calm Calm - N/A   Scattered Clouds
3:22 AM 50.0 °F 42.8 °F 76% 30.59 in 10.0 mi SW 3.5 mph - N/A   Clear
3:42 AM 50.0 °F 42.8 °F 76% 30.59 in 10.0 mi Calm Calm - N/A   Clear
4:02 AM 50.0 °F 41.0 °F 71% 30.58 in 10.0 mi Calm Calm - N/A   Clear
4:21 AM 51.8 °F 41.0 °F 67% 30.58 in 10.0 mi Calm Calm - N/A   Clear
4:42 AM 51.8 °F 42.8 °F 71% 30.58 in 10.0 mi West 4.6 mph - N/A   Clear
5:02 AM 53.6 °F 42.8 °F 67% 30.57 in 10.0 mi West 3.5 mph - N/A   Clear
5:22 AM 53.6 °F 42.8 °F 67% 30.57 in 10.0 mi Calm Calm - N/A   Clear
5:42 AM 53.6 °F 42.8 °F 67% 30.58 in 10.0 mi Calm Calm - N/A   Clear
6:01 AM 53.6 °F 42.8 °F 67% 30.58 in 10.0 mi Calm Calm - N/A   Clear
6:22 AM 53.6 °F 42.8 °F 67% 30.58 in 10.0 mi Calm Calm - N/A   Scattered Clouds
6:42 AM 53.6 °F 42.8 °F 67% 30.59 in 10.0 mi Calm Calm - N/A   Mostly Cloudy
7:02 AM 51.8 °F 42.8 °F 71% 30.59 in 10.0 mi Calm Calm - N/A   Mostly Cloudy
7:22 AM 53.6 °F 42.8 °F 67% 30.59 in 10.0 mi Calm Calm - N/A   Scattered Clouds
7:42 AM 51.8 °F 42.8 °F 71% 30.60 in 10.0 mi Calm Calm - N/A   Scattered Clouds
8:01 AM 53.6 °F 44.6 °F 72% 30.60 in 10.0 mi Calm Calm - N/A   Mostly Cloudy
8:22 AM 55.4 °F 44.6 °F 67% 30.61 in 10.0 mi Calm Calm - N/A   Overcast
8:42 AM 55.4 °F 44.6 °F 67% 30.61 in 10.0 mi Calm Calm - N/A   Mostly Cloudy
9:02 AM 59.0 °F 46.4 °F 63% 30.61 in 10.0 mi WSW 3.5 mph - N/A   Scattered Clouds
9:22 AM 59.0 °F 46.4 °F 63% 30.61 in 10.0 mi Calm Calm - N/A   Scattered Clouds
9:42 AM 59.0 °F 44.6 °F 59% 30.61 in 10.0 mi Calm Calm - N/A   Clear
10:02 AM 60.8 °F 44.6 °F 55% 30.61 in 10.0 mi Calm Calm - N/A   Clear
10:22 AM 60.8 °F 44.6 °F 55% 30.61 in 10.0 mi Calm Calm - N/A   Clear
10:42 AM 60.8 °F 44.6 °F 55% 30.61 in 10.0 mi Calm Calm - N/A   Clear
11:02 AM 62.6 °F 44.6 °F 52% 30.61 in 10.0 mi Calm Calm - N/A   Clear
11:22 AM 62.6 °F 46.4 °F 55% 30.62 in 10.0 mi Calm Calm - N/A   Clear
11:42 AM 60.8 °F 44.6 °F 55% 30.62 in 10.0 mi Calm Calm - N/A   Clear
12:02 PM 60.8 °F 44.6 °F 55% 30.62 in 10.0 mi Calm Calm - N/A   Scattered Clouds
12:22 PM 59.0 °F 44.6 °F 59% 30.61 in 10.0 mi Calm Calm - N/A Thunderstorm Thunderstorm
12:42 PM 59.0 °F 44.6 °F 59% 30.60 in 10.0 mi West 5.8 mph - N/A Thunderstorm Mostly Cloudy
1:02 PM 60.8 °F 42.8 °F 52% 30.60 in 10.0 mi Calm Calm - N/A Thunderstorm Thunderstorm
1:22 PM 59.0 °F 46.4 °F 63% 30.59 in 10.0 mi Calm Calm - N/A Rain , Thunderstorm Light Thunderstorms and Rain
1:42 PM 57.2 °F 50.0 °F 77% 30.59 in 10.0 mi Calm Calm - N/A Rain Light Rain
2:02 PM 66.2 °F 48.2 °F 52% 30.58 in 10.0 mi Calm Calm - N/A   Scattered Clouds
2:22 PM 69.8 °F 51.8 °F 53% 30.58 in 10.0 mi Calm Calm - N/A Thunderstorm Scattered Clouds
2:42 PM 64.4 °F 48.2 °F 56% 30.58 in 10.0 mi Calm Calm - N/A   Mostly Cloudy
3:02 PM 64.4 °F 46.4 °F 52% 30.58 in 10.0 mi Calm Calm - N/A   Scattered Clouds
3:22 PM 64.4 °F 48.2 °F 56% 30.57 in 10.0 mi Calm Calm - N/A   Scattered Clouds
3:42 PM 64.4 °F 46.4 °F 52% 30.57 in 10.0 mi Calm Calm - N/A Thunderstorm Thunderstorm
4:02 PM 60.8 °F 44.6 °F 55% 30.57 in 10.0 mi West 4.6 mph - N/A   Mostly Cloudy
4:22 PM 60.8 °F 46.4 °F 59% 30.56 in 10.0 mi Calm Calm - N/A Thunderstorm Thunderstorm
4:41 PM 62.6 °F 46.4 °F 55% 30.57 in 10.0 mi WSW 3.5 mph - N/A Thunderstorm Clear
5:02 PM 59.0 °F 44.6 °F 59% 30.56 in 10.0 mi WNW 8.1 mph - N/A   Mostly Cloudy
5:22 PM 59.0 °F 46.4 °F 63% 30.56 in 10.0 mi WSW 3.5 mph - N/A   Mostly Cloudy
5:41 PM 59.0 °F 44.6 °F 59% 30.55 in 10.0 mi Calm Calm - N/A Thunderstorm Clear
6:01 PM 60.8 °F 44.6 °F 55% 30.55 in 10.0 mi Calm Calm - N/A   Clear
6:22 PM 60.8 °F 44.6 °F 55% 30.54 in 10.0 mi Calm Calm - N/A   Clear
6:42 PM 59.0 °F 46.4 °F 63% 30.54 in 10.0 mi Calm Calm - N/A   Scattered Clouds
7:02 PM 59.0 °F 46.4 °F 63% 30.54 in 10.0 mi Calm Calm - N/A   Mostly Cloudy
7:22 PM 59.0 °F 44.6 °F 59% 30.53 in 10.0 mi Calm Calm - N/A   Scattered Clouds
7:42 PM 59.0 °F 46.4 °F 63% 30.53 in 10.0 mi Calm Calm - N/A   Scattered Clouds
8:02 PM 55.4 °F 44.6 °F 67% 30.53 in 10.0 mi Calm Calm - N/A   Scattered Clouds
8:22 PM 53.6 °F 46.4 °F 77% 30.54 in 10.0 mi WNW 6.9 mph - N/A   Mostly Cloudy
8:42 PM 51.8 °F 46.4 °F 82% 30.55 in 10.0 mi NW 5.8 mph - N/A   Overcast
9:02 PM 51.8 °F 44.6 °F 76% 30.55 in 10.0 mi NNW 5.8 mph - N/A Thunderstorm Thunderstorm
9:22 PM 53.6 °F 44.6 °F 72% 30.55 in 10.0 mi NE 6.9 mph - N/A   Overcast
9:42 PM 51.8 °F 44.6 °F 76% 30.57 in 10.0 mi NE 5.8 mph - N/A Thunderstorm Thunderstorm
10:01 PM 51.8 °F 44.6 °F 76% 30.57 in 10.0 mi ENE 3.5 mph - N/A   Scattered Clouds
10:23 PM 51.8 °F 44.6 °F 76% 30.57 in 10.0 mi ENE 3.5 mph - N/A   Mostly Cloudy
10:43 PM 51.8 °F 44.6 °F 76% 30.55 in 10.0 mi Calm Calm - N/A   Scattered Clouds
11:02 PM 50.0 °F 44.6 °F 82% 30.55 in 10.0 mi Calm Calm - N/A   Clear
11:23 PM 50.0 °F 42.8 °F 76% 30.55 in 10.0 mi Calm Calm - N/A   Clear
11:42 PM 50.0 °F 42.8 °F 76% 30.54 in 10.0 mi Calm Calm - N/A   Clear